Location: Newark
(23.3970°S, 47.6010°W)
Time: 23:08:58
(UTC+00:00)

Tiros 1 despin weight - Pass Details

Date: 26 February 2020
Orbit: 593 x 642 km, 48.2° (Epoch: 31 March)

Event Time Altitude Azimuth Distance (km) Brightness Sun altitude
Rises 20:19:45 0° 214° (SW) 2,964 ? 18.0°
Reaches altitude 10° 20:22:19 10° 203° (SSW) 2,050 ? 17.4°
Maximum altitude 20:26:33 31° 140° (SE) 1,121 ? 16.4°
Drops below altitude 10° 20:30:43 10° 77° (ENE) 2,024 ? 15.4°
Sets 20:33:14 0° 67° (ENE) 2,921 ? 14.9°
